MisrSat A

operational
NORAD ID: 44047 Int'l Des: 2019-008 Owner: EGYSA Country: EG
LEOCIRCULARRETROGRADESSO

Über MisrSat A

Beschreibung wird geladen...

Live-Position

3D-Globus wird geladen...

Nächste Überflüge

Höhenverlauf

Altitude vs Time

uPlot chart will show altitude changes over time

Zweizeiliger Elementsatz

1 44047U 19008A 26062.66701620 .00000777 00000-0 13081-3 0 9998
2 44047 98.0167 128.9692 0001137 79.8899 280.2437 14.72282584377715
Epoch: 3. März 2026 • Age: 31 hours

Aktueller Status

Höhe 662.1 km
Geschwindigkeit 7.53 km/s
Subsatellitenpunkt 54.56°N, 147.89°W
Startdatum 21. Feb. 2019
Alter 7 years
Typ other

Technische Details

Klassifizierung Payload
Masse 1050.00 kg
Trockenmasse 1050.00 kg
Gesamtmasse 1050.00 kg
Länge 0.50 m
Durchmesser 0.50 m
Spannweite 2.00 m
Form Box + 4 Pan + Ant
Hersteller YUZHUA
Bus-Typ Egyptsat
Phasenstatus In Orbit
Besitzer/Staat EGYSA/EG

Große Konstellationen

Loading constellations...